Location: Chassagnes
(44.4047°N, 4.1657°E)
Time: 23:56:31
(UTC+00:00)

IRS-1C Rocket - Visible Passes

Search period start: 01 March 2021 00:00
Search period end: 11 March 2021 00:00
Orbit: 801 x 805 km, 99.0° (Epoch: 01 March)

Date Brightness Start Highest point End Pass type
(mag) Time Alt. Az. Time Alt. Az. Time Alt. Az.
01 Mar 5.7 18:58:21 10° SSW 19:03:10 36° W 19:08:01 10° NNW visible
02 Mar 4.7 18:32:08 10° S 18:37:19 61° WSW 18:42:34 10° NNW visible
03 Mar 4.1 18:06:20 10° SSE 18:11:35 81° ENE 18:16:53 10° NNW visible
03 Mar 7.1 19:49:21 10° WSW 19:51:55 14° W 19:54:30 10° WNW visible
04 Mar 6.5 19:21:46 10° SW 19:25:54 23° W 19:30:04 10° NW visible
05 Mar 5.6 18:55:05 10° SSW 18:59:58 39° W 19:04:54 10° NNW visible
06 Mar 4.6 18:28:56 10° S 18:34:09 66° WSW 18:39:26 10° NNW visible
07 Mar 4.1 18:03:11 10° SSE 18:08:26 76° ENE 18:13:44 10° N visible
07 Mar 7.0 19:45:49 10° WSW 19:48:42 15° W 19:51:37 10° NW visible
08 Mar 6.4 19:18:24 10° SSW 19:22:42 25° W 19:27:01 10° NW visible
09 Mar 5.5 18:51:50 10° S 18:56:48 42° W 19:01:48 10° NNW visible
10 Mar 4.5 18:25:44 10° S 18:30:59 71° WSW 18:36:17 10° NNW visible
